Temperature
16 16 17 17 20 21 22 23 23 23 23 23 23 23 25 25 25 23 20 19 18 17 16 16 15 15 14 14 14 14 14 13 13 13 12 12 12 12 12 12 12 12 12 12 12 12 12 12 12
16 16 17 19 21 21 22 23 23 24 23 21 21 22 23 24 21 19 19 18 17 17 16 15 15 15 14 14 14 14 13 13 13 12 12 12 11 11 11 11 11 11 11 11 11 11 11 12 12
16 16 18 20 20 22 23 23 23 23 21 21 22 22 23 23 19 19 19 18 17 16 15 15 15 14 14 14 14 14 13 13 12 12 12 11 11 11 11 11 11 11 11 11 11 11 11 11 12
15 17 18 20 21 22 23 23 23 22 21 21 22 23 21 19 18 19 19 18 16 16 15 15 15 14 14 14 14 13 13 12 12 12 11 11 11 11 11 11 10 10 10 10 10 11 11 11 11
15 18 20 20 21 22 23 22 21 22 23 22 22 23 21 19 19 19 19 18 16 15 15 15 15 14 14 14 14 13 13 12 12 11 11 11 11 11 11 10 10 10 10 10 10 10 10 10 10
17 19 20 20 21 22 22 21 21 22 23 22 22 23 21 19 19 19 18 17 16 15 15 14 14 14 14 14 13 13 12 12 12 11 11 10 10 10 10 10 10 10 10 10 10 10 10 10 10
18 19 19 21 21 21 22 21 22 23 23 22 22 23 21 18 18 18 17 16 15 15 14 14 14 14 14 13 13 13 12 12 11 11 11 11 10 10 10 10 10 10 10 10 10 10 10 10 10
17 19 19 20 20 21 22 21 21 22 23 21 21 23 22 18 19 17 16 15 15 15 14 14 14 13 13 13 13 12 12 12 11 11 11 11 10 10 10 10 10 10 10 10 10 10 10 10 10
16 18 19 20 20 21 21 21 21 20 21 20 20 21 20 20 19 17 16 15 15 15 14 14 13 13 13 13 12 12 12 12 11 11 11 10 10 10 10 10 10 10 10 10 10 10 10 10 10
16 17 19 20 21 21 21 21 21 20 21 20 19 18 19 19 19 18 17 16 16 15 15 14 14 13 13 12 12 12 11 11 11 10 10 10 10 9 9 10 10 10 10 10 10 10 10 9 9
17 18 19 20 19 20 20 20 20 21 22 22 21 19 19 18 18 18 18 17 17 16 15 15 14 14 13 13 12 12 11 11 11 10 10 10 10 10 9 9 9 9 10 9 10 9 9 9 9
17 18 19 19 18 18 20 20 20 21 22 21 21 20 20 18 18 18 18 17 17 16 16 15 15 14 14 13 12 12 12 11 11 11 10 10 10 10 10 9 9 9 9 9 9 9 9 9 9
17 18 18 18 18 18 19 19 20 20 20 20 20 19 19 19 19 19 18 17 17 17 16 16 15 15 14 13 13 12 12 12 11 11 11 10 10 10 10 9 9 9 9 9 9 9 9 9 9
17 17 18 18 18 18 19 19 19 20 19 19 19 19 19 19 19 18 17 17 18 18 17 16 16 15 14 14 13 13 12 12 11 11 11 11 10 10 10 9 9 9 9 9 9 9 9 9 9
16 17 17 18 18 18 18 18 20 20 19 19 19 19 19 19 18 18 19 19 19 18 17 17 16 15 15 14 14 13 13 12 12 12 11 11 10 10 10 10 9 9 9 9 9 9 9 9 9
16 16 16 18 18 18 18 18 21 20 19 19 19 19 18 18 19 19 19 18 18 18 17 17 17 16 15 15 14 14 13 13 12 12 11 11 11 10 10 10 9 9 9 9 9 9 9 9 9
14 15 16 18 18 18 18 18 21 20 19 20 20 20 19 18 18 19 19 19 18 18 18 17 17 17 16 15 14 14 13 13 12 12 11 11 11 10 10 10 9 9 9 9 9 9 9 8 9
14 16 17 17 18 18 18 19 20 19 19 20 20 20 19 19 19 19 19 19 18 18 17 17 17 16 16 15 14 13 13 13 12 12 12 11 11 10 10 10 9 9 9 9 9 9 9 9 9
16 16 16 17 18 17 18 18 20 20 19 19 20 20 20 19 19 19 18 18 18 17 17 17 17 16 15 15 14 14 13 13 13 12 12 12 11 11 10 10 10 9 9 9 9 8 9 9 9
14 15 16 17 17 17 17 18 19 20 20 19 20 20 20 20 19 19 18 18 18 18 18 17 17 16 16 16 16 15 14 13 13 13 12 12 11 11 10 10 10 10 9 9 9 9 9 8 8
13 14 15 16 16 16 16 17 18 19 19 19 19 19 20 20 20 19 18 18 18 18 18 18 18 17 17 16 15 14 12 12 12 12 12 12 11 11 11 10 10 10 9 9 9 9 9 8 8
12 14 15 15 15 15 16 16 19 19 19 19 18 19 19 19 19 19 19 18 19 19 19 18 18 17 17 16 15 14 13 13 14 14 13 13 12 11 11 10 10 10 10 9 9 9 9 8 8
13 14 14 14 15 15 15 15 18 19 18 19 20 19 19 18 18 19 19 18 19 19 19 19 18 17 16 16 15 15 14 14 14 13 13 12 12 11 11 10 10 10 10 9 9 9 9 9 8
13 13 12 13 13 13 15 15 17 19 19 20 20 19 18 18 18 18 18 18 19 19 19 19 18 17 16 16 15 15 15 14 13 13 13 12 12 11 11 11 10 10 10 9 9 9 9 9 8
11 11 10 11 11 13 16 15 17 19 19 20 20 19 18 17 17 17 18 18 18 18 19 18 18 17 17 16 15 15 15 14 13 13 13 12 12 12 11 11 10 10 10 9 9 9 9 9 8
11 11 12 12 13 15 14 15 18 19 18 18 18 18 17 17 17 17 18 18 18 18 18 18 18 17 17 16 16 15 14 13 13 12 12 12 12 12 12 11 10 10 10 9 9 9 9 8 8
11 11 12 13 14 15 15 16 17 17 17 16 17 17 16 16 16 17 17 18 18 18 18 18 18 17 17 16 15 15 14 13 12 12 12 12 12 12 11 11 10 10 10 9 9 9 9 8 8
12 11 11 11 12 14 15 16 17 18 17 17 17 17 16 16 16 16 17 17 17 17 18 18 17 17 17 16 15 14 14 13 12 12 11 11 11 11 11 11 10 10 10 9 9 9 9 8 8
10 10 10 11 13 14 15 17 18 19 19 19 18 18 17 16 16 16 17 17 17 17 17 17 17 16 16 15 14 14 13 12 12 11 11 11 11 11 11 11 10 10 10 9 9 9 8 8 8
10 11 10 11 12 14 15 17 18 18 18 18 18 17 16 16 16 16 16 16 16 16 16 16 16 16 15 15 14 13 13 12 11 11 11 11 11 10 10 10 10 10 9 9 9 9 8 8 7
Wind_Speed
3 2 3 4 6 8 14 11 9 8 7 6 6 6 7 6 3 1 5 15 18 20 22 23 22 21 20 19 18 17 15 15 14 14 14 14 14 14 14 14 14 14 14 15 15 15 15 15 16
3 3 5 6 8 13 12 12 13 11 5 5 6 6 6 5 2 6 9 15 19 21 21 22 22 22 21 19 18 17 16 15 15 14 14 13 13 13 13 13 13 14 14 14 14 14 14 14 14
4 4 6 6 10 14 10 9 12 8 6 6 6 5 4 3 5 7 10 18 20 20 20 22 23 22 21 20 19 17 16 15 15 14 14 13 13 13 13 13 13 13 13 13 13 13 13 13 13
5 5 6 11 17 16 11 5 5 7 7 7 7 5 4 3 4 8 16 19 20 19 20 22 23 22 21 20 19 18 17 16 15 14 14 13 13 13 13 12 12 12 12 12 12 12 12 12 12
5 6 10 14 19 14 12 9 6 8 8 8 9 6 6 4 5 12 18 19 20 19 19 22 22 22 21 20 19 18 17 16 15 14 14 13 13 13 12 12 11 11 11 11 11 11 11 10 11
6 7 11 17 18 14 12 11 11 11 9 8 8 8 6 6 9 15 18 18 19 18 18 21 22 22 21 21 20 18 17 16 16 14 14 13 13 12 12 11 10 10 10 10 10 10 10 10 10
10 10 15 16 15 15 13 11 14 13 13 11 9 8 7 9 10 15 17 17 17 17 16 18 21 21 20 20 20 18 17 16 15 14 13 13 12 12 11 10 9 9 9 9 9 9 9 9 9
9 7 15 16 16 14 10 9 10 13 12 7 8 9 8 13 15 16 16 15 16 16 16 17 19 19 19 19 19 18 17 16 15 14 14 13 12 11 10 10 9 8 8 8 8 8 9 8 8
8 11 17 17 13 11 9 10 8 6 8 7 6 2 5 18 19 18 15 15 15 16 15 15 16 17 17 18 19 18 17 16 16 14 14 12 11 10 9 8 8 7 7 7 7 8 8 6 7
11 17 21 13 12 9 9 10 8 8 11 10 8 5 11 18 20 21 20 20 20 20 18 16 16 16 16 15 17 15 15 15 14 13 14 11 9 8 8 9 7 7 7 7 7 7 5 2 4
13 18 18 15 12 9 9 9 8 11 12 14 15 15 16 19 20 21 21 22 22 21 19 17 16 16 16 13 14 12 12 13 13 13 13 10 9 8 8 8 8 7 6 5 5 4 3 2 3
16 19 17 16 13 12 12 9 9 13 11 7 11 15 19 21 22 23 22 21 20 20 20 19 17 16 16 15 13 12 11 11 11 12 13 11 8 8 7 6 6 6 5 4 3 2 3 2 2
23 19 17 16 13 14 13 14 12 14 10 5 6 14 19 22 23 22 20 19 19 20 21 20 19 18 16 14 12 12 12 12 12 12 13 11 9 8 7 6 6 6 5 4 3 2 2 1 1
17 19 19 17 16 14 15 16 15 15 10 9 11 15 18 21 22 20 19 20 21 21 21 20 20 19 17 14 13 12 12 12 13 12 13 13 10 9 8 7 6 6 5 4 3 2 1 1 1
15 17 19 20 19 15 13 19 22 17 13 13 13 15 17 19 19 21 22 22 22 21 21 21 21 20 19 17 15 12 13 13 12 12 14 14 12 10 9 7 6 6 6 5 3 3 2 1 1
14 18 21 20 20 17 16 23 20 16 17 18 17 16 16 18 20 20 20 20 20 19 20 21 18 20 20 17 15 12 13 13 13 13 14 15 14 12 10 7 7 7 7 5 4 3 3 2 1
15 21 25 20 18 17 20 21 17 15 17 20 19 18 17 17 19 20 20 20 20 20 21 21 21 21 20 18 15 13 13 13 13 13 13 15 15 14 12 8 8 9 7 6 4 4 3 2 2
20 23 24 23 15 19 23 23 17 13 16 20 21 20 18 19 20 20 20 20 19 20 20 21 21 21 20 16 13 12 12 12 13 13 14 16 16 16 13 10 10 10 7 6 6 5 4 3 2
21 22 22 20 14 16 22 24 22 19 17 20 20 20 20 20 19 18 19 19 19 20 21 22 22 21 18 16 15 15 14 13 12 13 16 17 17 17 14 10 10 9 8 8 8 6 5 4 3
21 22 22 15 13 14 18 23 22 22 22 21 22 22 22 20 18 16 17 18 20 21 22 23 23 23 22 18 17 15 14 12 12 12 14 18 18 17 15 13 10 10 9 9 9 8 5 4 4
23 23 22 16 11 12 12 19 23 22 22 22 22 23 23 22 21 19 18 19 19 21 23 22 24 24 24 21 15 12 11 10 11 13 13 16 18 18 17 16 13 11 10 9 10 10 9 6 5
22 20 18 16 14 12 14 14 20 20 21 22 23 23 23 22 21 19 18 19 20 21 21 22 23 24 24 22 19 20 16 15 17 14 14 15 18 18 17 16 15 12 10 10 10 10 8 7 6
16 14 15 16 16 15 16 14 14 14 20 23 23 23 23 21 20 19 18 18 18 18 18 20 22 23 23 23 22 21 19 16 14 14 15 15 15 16 17 16 14 13 11 11 11 10 10 8 7
11 9 8 10 11 17 23 18 15 15 20 19 19 20 20 19 18 17 15 14 14 14 16 17 20 22 22 23 23 23 22 19 17 17 15 14 12 13 16 15 14 13 11 12 11 11 11 9 9
13 12 8 10 12 15 17 17 16 14 15 17 16 16 16 16 16 16 15 15 14 15 16 17 20 21 22 23 23 23 22 21 19 17 16 15 12 12 15 14 14 13 12 11 11 10 11 10 10
19 19 13 10 13 12 12 16 14 13 13 14 14 13 13 14 14 14 14 14 14 15 16 17 19 20 21 22 22 21 21 16 14 16 14 15 13 13 15 15 14 14 13 11 11 9 9 8 9
17 18 13 8 8 10 11 11 12 10 13 15 15 14 15 14 14 13 12 12 13 14 15 17 18 19 20 21 20 19 19 17 16 16 15 13 12 11 14 14 14 13 12 12 11 9 9 9 9
15 13 9 10 10 12 12 14 11 14 18 17 17 17 16 14 13 12 11 11 11 12 13 14 16 17 18 18 17 15 17 17 15 14 15 14 13 12 13 13 13 12 11 11 10 9 8 9 8
14 15 10 10 9 10 11 11 10 15 15 17 18 16 15 14 13 11 10 10 10 10 12 13 14 14 15 16 16 16 15 15 15 13 14 13 12 12 12 12 12 12 11 11 10 9 9 9 8
13 15 15 12 10 10 11 8 4 10 10 11 12 11 11 11 10 10 10 10 11 11 12 12 13 13 14 14 15 15 14 14 14 13 13 12 12 11 11 11 11 11 10 10 10 10 9 9 9
Wind_Direction
195 226 212 202 211 225 232 221 216 195 197 196 183 188 203 195 197 98 116 155 151 153 157 159 158 155 150 145 140 134 130 128 124 121 117 113 107 101 96 93 90 88 86 83 81 78 77 75 74
210 200 204 210 224 223 227 222 215 206 178 154 175 191 195 193 90 111 142 155 154 154 156 158 156 155 151 147 142 138 135 132 128 125 121 117 112 107 102 99 95 92 88 86 83 81 79 77 75
189 213 211 211 225 226 223 212 215 203 183 181 175 195 200 153 138 141 150 155 155 154 157 153 155 155 153 149 145 142 139 137 133 129 125 121 116 112 108 104 100 95 92 89 86 84 81 80 78
193 199 218 229 228 227 234 198 187 188 194 208 196 176 160 82 125 137 146 156 156 156 157 154 157 156 154 151 149 146 144 142 138 133 129 125 120 115 111 108 105 101 97 94 91 88 85 82 81
214 215 218 228 234 232 233 236 215 203 190 191 198 184 151 113 115 140 151 158 158 158 158 157 160 158 156 154 152 150 148 145 141 137 134 129 125 121 117 114 110 106 101 98 94 90 87 84 83
205 218 225 229 231 231 232 228 221 221 211 196 194 184 147 129 144 150 155 160 159 159 159 159 161 159 158 158 156 154 151 148 145 142 139 135 131 127 124 119 113 109 104 100 97 93 89 86 84
220 219 233 237 237 234 230 219 219 220 215 203 191 181 155 152 150 153 156 160 160 162 163 163 164 163 162 161 159 158 154 151 148 145 142 137 136 135 131 125 120 115 109 103 98 94 89 84 83
230 229 235 234 235 235 221 207 220 220 218 199 195 196 176 157 150 152 154 160 164 168 170 168 168 167 167 166 162 159 157 155 152 147 142 140 143 141 135 134 125 118 112 106 101 96 90 83 80
218 229 231 226 229 230 206 208 210 215 204 191 198 203 111 137 148 151 156 165 171 177 178 174 171 171 171 168 162 162 160 158 155 151 145 151 156 150 148 129 125 122 117 109 102 97 93 94 92
211 227 231 232 231 231 208 212 201 195 202 199 189 145 137 149 159 165 170 175 179 182 183 179 177 174 173 168 168 171 169 167 171 166 164 168 161 155 147 129 126 122 119 114 101 103 116 131 102
216 230 234 235 234 238 225 218 205 208 210 209 200 179 163 167 174 179 182 183 184 183 183 183 180 178 176 173 174 174 173 173 178 173 172 170 164 160 162 159 155 152 154 142 129 146 110 84 70
226 233 236 236 229 232 232 226 219 221 222 213 208 176 170 179 185 189 189 188 185 185 186 186 183 182 182 179 178 177 177 178 178 178 178 175 173 175 172 174 166 167 164 153 158 140 123 102 86
227 233 232 236 233 234 236 234 235 234 237 233 188 172 183 190 194 196 193 188 187 189 189 189 187 186 185 184 183 184 184 182 182 180 184 183 180 181 179 179 176 177 169 171 172 168 141 127 93
228 232 234 233 231 231 235 241 238 237 229 217 197 194 197 198 199 195 194 193 193 193 192 190 190 189 187 188 187 188 188 185 185 185 188 188 187 184 185 183 183 183 182 178 182 172 167 149 126
230 231 235 232 230 229 232 243 236 233 225 223 217 212 208 208 203 202 199 199 197 195 192 191 192 191 191 192 191 191 191 188 189 188 190 192 192 189 189 188 187 188 185 184 188 176 192 175 187
216 225 231 228 223 222 220 241 232 223 221 227 226 221 216 214 211 210 207 205 201 196 193 191 191 194 194 194 193 192 193 192 193 191 192 194 194 193 193 193 194 189 188 193 195 201 203 203 221
210 221 225 225 217 215 219 241 236 223 222 229 228 225 221 218 217 216 212 208 203 198 194 192 193 195 195 195 194 194 193 196 196 195 194 195 196 196 197 199 195 190 194 199 197 209 217 218 226
208 217 222 222 210 212 222 234 232 222 222 229 230 228 224 223 221 218 214 210 206 201 196 194 194 196 194 193 194 194 196 199 201 200 199 196 198 198 200 200 198 192 195 200 202 203 208 221 224
223 223 224 225 213 213 227 235 236 231 227 232 232 230 227 227 227 221 216 210 204 201 199 196 195 195 192 191 193 195 198 198 200 203 203 200 200 199 201 201 198 196 202 204 205 204 202 207 207
225 226 227 228 219 222 236 242 241 238 234 234 235 233 231 230 225 218 213 208 204 202 200 199 198 195 194 195 196 198 197 199 200 200 205 204 204 201 201 204 199 198 202 204 202 201 206 201 206
222 222 221 221 213 225 244 250 242 238 235 235 236 236 235 231 228 220 212 207 204 203 202 200 199 197 196 195 193 191 191 193 197 201 203 205 205 204 203 205 203 201 202 204 203 202 207 209 205
222 221 222 219 218 227 222 250 241 232 230 230 231 231 232 229 229 226 218 210 206 205 202 202 200 198 196 193 192 189 192 197 201 200 200 202 204 205 205 205 204 202 203 206 204 204 210 211 211
223 213 217 224 229 238 229 243 250 226 231 229 228 227 228 227 225 224 220 214 209 204 200 200 199 198 195 194 195 195 200 203 199 197 198 199 202 205 204 203 202 202 204 208 203 201 207 210 215
209 195 206 223 228 237 229 230 251 226 228 228 225 224 223 222 221 221 217 210 205 199 197 196 197 197 195 194 196 199 201 200 195 194 195 196 198 201 203 202 203 203 204 205 203 201 206 210 214
195 184 190 200 211 231 218 223 242 234 226 226 223 220 217 215 213 211 208 203 198 193 192 192 193 195 194 195 198 201 203 201 199 195 196 194 196 199 201 200 203 203 204 203 199 200 205 209 211
202 198 201 202 212 219 208 226 237 232 228 229 230 229 220 214 210 208 204 200 196 191 189 189 191 192 192 194 197 200 202 201 202 200 197 197 199 201 199 199 203 203 201 198 197 200 203 205 211
199 210 223 241 227 221 215 231 244 235 229 226 226 225 219 213 207 204 200 198 195 190 189 188 187 189 190 193 195 198 198 199 199 198 198 198 199 197 197 196 200 200 198 196 194 201 200 202 209
208 196 195 208 211 222 223 227 227 210 215 216 217 218 215 209 204 199 197 195 193 189 185 185 185 186 187 189 191 193 195 197 196 194 196 196 196 193 192 194 195 195 194 193 193 200 201 202 206
193 198 199 201 226 226 229 233 220 219 213 212 213 213 208 204 198 194 189 185 180 176 176 177 180 180 182 185 187 189 191 192 192 193 195 195 194 190 189 190 188 188 190 190 191 197 196 203 206
207 199 197 202 206 224 235 239 191 218 218 215 212 206 202 196 189 182 176 172 171 172 172 173 176 177 178 179 181 183 184 185 188 190 191 190 189 185 185 184 183 185 186 189 194 198 197 202 206
Height
1516 1517 1519 1521 1520 1514 1506 1499 1498 1499 1500 1502 1503 1504 1502 1502 1505 1510 1509 1509 1512 1516 1519 1522 1526 1529 1531 1533 1535 1536 1537 1538 1539 1540 1540 1541 1541 1542 1542 1542 1542 1542 1542 1542 1542 1542 1542 1542 1541
1516 1517 1520 1519 1513 1509 1501 1495 1497 1496 1498 1502 1503 1503 1503 1503 1505 1506 1506 1509 1512 1516 1519 1523 1525 1529 1531 1533 1535 1536 1538 1539 1540 1540 1541 1542 1542 1542 1543 1543 1543 1543 1543 1543 1543 1543 1543 1543 1542
1515 1516 1518 1512 1506 1500 1495 1493 1493 1497 1500 1501 1502 1502 1502 1503 1505 1505 1506 1508 1513 1516 1520 1522 1525 1528 1531 1533 1535 1536 1538 1539 1540 1541 1542 1542 1543 1543 1543 1544 1544 1544 1544 1544 1544 1544 1544 1544 1544
1515 1517 1515 1508 1499 1493 1491 1491 1494 1496 1499 1500 1500 1501 1502 1503 1504 1504 1506 1509 1513 1516 1520 1523 1526 1529 1531 1533 1535 1537 1538 1539 1540 1541 1542 1543 1543 1544 1544 1545 1545 1545 1545 1545 1545 1545 1545 1545 1545
1513 1512 1507 1502 1495 1490 1491 1493 1495 1495 1495 1497 1499 1498 1500 1501 1502 1504 1506 1509 1513 1517 1520 1523 1526 1529 1531 1533 1535 1537 1538 1540 1541 1542 1543 1544 1544 1545 1545 1545 1546 1546 1547 1547 1547 1547 1547 1546 1546
1512 1507 1502 1496 1490 1488 1490 1492 1494 1493 1494 1496 1498 1497 1500 1500 1502 1504 1507 1510 1514 1517 1520 1523 1526 1529 1531 1533 1535 1537 1539 1540 1541 1542 1543 1544 1545 1545 1546 1546 1547 1547 1548 1548 1548 1548 1548 1548 1547
1507 1502 1495 1489 1487 1486 1487 1490 1491 1490 1491 1493 1495 1495 1498 1500 1501 1504 1507 1511 1514 1517 1521 1524 1526 1529 1531 1533 1535 1537 1539 1540 1541 1543 1544 1544 1545 1546 1547 1547 1548 1548 1549 1549 1549 1549 1549 1549 1548
1503 1498 1491 1488 1486 1484 1484 1487 1488 1488 1488 1492 1494 1493 1496 1498 1500 1503 1507 1510 1513 1517 1520 1523 1526 1528 1531 1533 1535 1537 1539 1540 1541 1543 1544 1545 1546 1546 1547 1548 1548 1549 1549 1550 1550 1550 1550 1549 1549
1500 1496 1486 1483 1483 1481 1483 1485 1486 1487 1488 1490 1491 1492 1494 1495 1498 1502 1505 1509 1512 1515 1519 1522 1525 1528 1531 1533 1534 1537 1538 1540 1541 1542 1543 1545 1547 1548 1548 1548 1549 1549 1550 1550 1550 1550 1550 1550 1550
1495 1487 1480 1479 1480 1479 1481 1482 1483 1485 1485 1487 1489 1490 1491 1494 1496 1499 1501 1504 1508 1512 1516 1519 1523 1526 1529 1532 1534 1536 1538 1539 1541 1542 1543 1545 1547 1548 1548 1548 1549 1550 1550 1551 1551 1551 1551 1551 1551
1485 1479 1477 1478 1480 1481 1480 1481 1482 1481 1481 1482 1484 1487 1489 1492 1495 1497 1499 1502 1505 1509 1513 1517 1520 1524 1527 1529 1532 1535 1537 1538 1540 1542 1543 1545 1546 1547 1548 1549 1550 1550 1551 1551 1551 1552 1552 1552 1551
1479 1476 1476 1476 1479 1480 1479 1479 1479 1479 1478 1480 1482 1484 1486 1488 1491 1494 1497 1500 1504 1507 1510 1514 1517 1521 1524 1527 1530 1532 1534 1536 1538 1540 1542 1543 1545 1546 1547 1549 1550 1550 1551 1551 1552 1552 1552 1551 1551
1474 1472 1474 1475 1476 1477 1477 1476 1476 1476 1477 1478 1480 1482 1483 1486 1488 1492 1496 1499 1502 1505 1508 1511 1514 1518 1521 1524 1527 1530 1532 1534 1537 1538 1540 1542 1544 1545 1546 1548 1549 1550 1551 1551 1551 1552 1552 1552 1551
1468 1470 1471 1472 1473 1474 1474 1473 1474 1472 1474 1476 1477 1478 1480 1483 1486 1489 1492 1495 1498 1501 1504 1508 1511 1515 1518 1521 1524 1527 1530 1532 1535 1536 1538 1540 1542 1544 1545 1547 1548 1549 1550 1550 1551 1551 1551 1551 1551
1467 1467 1466 1465 1467 1469 1472 1468 1466 1468 1471 1472 1474 1475 1477 1480 1483 1485 1487 1490 1493 1497 1501 1504 1508 1511 1515 1518 1521 1524 1527 1530 1532 1534 1536 1538 1540 1542 1543 1545 1546 1547 1548 1549 1550 1550 1550 1550 1550
1463 1463 1461 1457 1461 1464 1469 1460 1457 1463 1466 1467 1469 1471 1473 1475 1477 1480 1484 1487 1490 1494 1497 1500 1504 1507 1511 1514 1518 1521 1524 1527 1529 1532 1534 1536 1538 1540 1542 1543 1545 1546 1547 1548 1548 1549 1549 1549 1549
1457 1455 1451 1451 1453 1456 1459 1454 1453 1457 1460 1461 1463 1466 1468 1470 1472 1475 1479 1482 1485 1488 1492 1496 1499 1503 1507 1511 1514 1517 1520 1523 1526 1529 1531 1533 1535 1537 1539 1541 1543 1544 1545 1546 1547 1547 1548 1548 1548
1446 1444 1444 1444 1446 1451 1452 1449 1449 1452 1455 1455 1457 1459 1462 1464 1466 1470 1473 1476 1480 1483 1487 1490 1494 1498 1503 1506 1510 1513 1516 1519 1522 1524 1527 1530 1532 1534 1537 1539 1540 1542 1543 1544 1545 1545 1546 1546 1546
1437 1438 1439 1439 1442 1447 1446 1444 1443 1446 1449 1450 1450 1452 1455 1457 1461 1464 1467 1470 1473 1477 1480 1484 1488 1492 1496 1500 1503 1506 1510 1513 1517 1520 1523 1526 1529 1531 1533 1535 1537 1539 1540 1542 1543 1544 1544 1544 1545
1438 1438 1437 1439 1441 1444 1442 1439 1437 1439 1440 1442 1444 1445 1448 1451 1454 1456 1459 1462 1466 1469 1473 1477 1481 1485 1489 1493 1497 1501 1505 1509 1512 1516 1519 1522 1525 1527 1530 1532 1534 1536 1538 1539 1540 1541 1542 1542 1543
1435 1435 1435 1438 1440 1442 1443 1437 1431 1430 1433 1435 1437 1438 1440 1443 1446 1449 1452 1455 1458 1462 1465 1469 1474 1478 1482 1487 1492 1496 1501 1504 1507 1510 1513 1517 1520 1523 1526 1528 1531 1533 1534 1535 1537 1538 1539 1540 1540
1431 1431 1433 1436 1440 1438 1440 1433 1419 1419 1423 1425 1427 1429 1431 1435 1438 1441 1444 1447 1450 1454 1458 1463 1467 1471 1475 1480 1484 1488 1491 1495 1499 1504 1508 1512 1515 1518 1521 1524 1527 1529 1530 1532 1533 1535 1536 1537 1537
1425 1428 1432 1435 1436 1436 1434 1433 1414 1412 1414 1413 1416 1419 1422 1426 1429 1432 1435 1439 1442 1447 1451 1455 1460 1464 1468 1473 1477 1481 1486 1491 1495 1499 1503 1507 1510 1513 1517 1520 1522 1524 1526 1528 1530 1531 1532 1533 1534
1424 1429 1434 1435 1437 1438 1425 1427 1411 1403 1402 1403 1406 1410 1414 1418 1421 1424 1428 1431 1435 1439 1443 1448 1452 1456 1461 1466 1470 1475 1480 1485 1489 1493 1497 1501 1504 1508 1511 1514 1517 1520 1522 1524 1526 1527 1528 1529 1530
1422 1429 1436 1435 1434 1422 1413 1416 1402 1392 1394 1397 1400 1403 1407 1410 1414 1417 1420 1424 1427 1431 1436 1440 1445 1450 1454 1459 1464 1468 1474 1479 1483 1487 1491 1495 1498 1502 1505 1509 1512 1514 1517 1519 1521 1523 1524 1525 1526
1414 1418 1417 1416 1412 1407 1411 1407 1391 1388 1391 1394 1397 1399 1401 1404 1407 1410 1413 1417 1421 1425 1429 1434 1438 1443 1448 1453 1458 1463 1468 1473 1477 1482 1486 1490 1493 1497 1500 1503 1507 1510 1512 1514 1516 1518 1519 1520 1521
1409 1411 1409 1409 1401 1402 1400 1393 1388 1387 1388 1390 1392 1394 1395 1398 1401 1404 1408 1412 1415 1419 1423 1428 1433 1438 1442 1447 1452 1457 1462 1467 1472 1476 1481 1485 1488 1492 1495 1498 1502 1505 1507 1510 1512 1513 1514 1516 1516
1400 1404 1412 1415 1408 1400 1391 1388 1380 1378 1379 1382 1385 1387 1389 1393 1396 1399 1403 1406 1410 1414 1419 1423 1428 1432 1437 1442 1447 1452 1457 1462 1467 1472 1476 1480 1483 1487 1490 1493 1497 1500 1502 1505 1507 1509 1510 1511 1511
1399 1403 1406 1405 1398 1389 1385 1376 1364 1366 1369 1373 1376 1380 1384 1388 1391 1395 1398 1402 1406 1410 1414 1419 1423 1428 1433 1438 1443 1448 1453 1457 1462 1467 1471 1475 1479 1482 1486 1489 1492 1495 1497 1500 1502 1504 1505 1506 1506
1392 1393 1398 1398 1395 1388 1379 1370 1361 1363 1365 1369 1372 1376 1380 1384 1388 1391 1395 1398 1402 1406 1411 1415 1420 1424 1429 1434 1439 1444 1448 1453 1457 1462 1466 1471 1474 1478 1481 1485 1488 1490 1493 1495 1497 1499 1500 1501 1501